Regional Weather Roundup
Issued by NWS Kansas City/Pleasant Hill, MO

Home | Current Version | Previous Version | Text Only | Print | Product List | Glossary On
Versions: 1 2 3 4 5 6 7 8 9 10 11 12 13 14 15 16 17 18 19 20 21 22 23 24 25 26 27
000
ASUS43 KEAX 171010
RWREAX

WEATHER ROUNDUP FOR EASTERN KANSAS AND NORTHWEST MISSOURI
NATIONAL WEATHER SERVICE KANSAS CITY/PLEASANT HILL MO
500 AM CDT THU AUG 17 2017

KSZ040-057-103>105-MOZ028-029-037-043-171100-
...KANSAS CITY METROPOLITAN AREA...

CITY           SKY/WX    TMP DP  RH WIND       PRES   REMARKS
K.C. INTL      CLOUDY    66  64  93 W6        29.88R
K.C. DOWNTOWN  CLOUDY    70  68  93 W3        29.87R
LEES SUMMIT    CLOUDY    68  68 100 W8        29.89R
OLATHE - IXD   CLOUDY    67  66  97 NW7       29.90R
OLATHE - OJC   CLOUDY    67  67 100 W3        29.90R
LAWRENCE       CLOUDY    66  65  96 W6        29.90R

$$

MOZ001>008-011>017-020>025-030>033-038>040-044>046-053-054-171100-
...NORTHERN AND CENTRAL MISSOURI...

CITY           SKY/WX    TMP DP  RH WIND       PRES   REMARKS
ST. JOSEPH     FOG       63  62  97 W5        29.87S VSB 1
MOSBY          CLOUDY    68  66  94 W5        29.87R
WARRENSBURG    CLOUDY    68  66  94 SW5       29.88R
WHITEMAN AFB   MOCLDY    69  69 100 SW6       29.87R
CLINTON        CLOUDY    68  68 100 SW8       29.90R
SEDALIA        PTCLDY    69  69 100 SW12      29.89R
WARSAW         NOT AVBL
CHILLICOTHE      N/A     68  68 100 SW3       29.85R
KIRKSVILLE     CLOUDY    69  67  93 SW7       29.83R

$$

MOZ041-047>049-056>058-063>065-088>090-097-171100-
...EASTERN AND SOUTHERN MISSOURI...

CITY           SKY/WX    TMP DP  RH WIND       PRES   REMARKS
ST. LOUIS INTL CLOUDY    69  68  96 SW5       29.87R
SPIRIT OF STL  CLOUDY    69  68  96 W8        29.86R
COLUMBIA       CLOUDY    68  67  96 SW9       29.88R
JEFFERSON CITY CLOUDY    69  69 100 S8        29.88R
ROLLA          CLOUDY    65  65 100 SW7       29.93R
OSAGE BEACH    CLOUDY    68  67  96 SW7       29.92R
SPRINGFIELD    CLOUDY    67  67 100 S6        29.93R
BRANSON        LGT RAIN  68  66  94 S6        29.94F
JOPLIN         CLOUDY    69  69 100 SW5       29.92S
WEST PLAINS    LGT RAIN  69  67  93 W6        29.97R

$$

IAZ060-094-KSZ022-034>040-054-083-096-NEZ052-066-093-171100-
...KANSAS...SOUTHEAST NEBRASKA AND IOWA...

CITY           SKY/WX    TMP DP  RH WIND       PRES   REMARKS
TOPEKA         CLOUDY    67  67 100 W6        29.91R
MANHATTAN      CLEAR     63  63 100 SW5       29.94R
EMPORIA        CLOUDY    66  64  93 NW7       29.93R
CHANUTE        FOG       69  68  96 SW6       29.91S VSB 1/4
WICHITA        CLEAR     67  64  90 NW10      29.95F
OMAHA          CLOUDY    67  60  78 W9        29.85R
LINCOLN        CLEAR     64  60  87 W8        29.91R
FALLS CITY     CLEAR     64  61  90 W10       29.88R
LAMONI         CLEAR     65  63  93 W12       29.83R
DES MOINES     CLOUDY    67  63  87 W12       29.76S

$$





USA.gov is the U.S. government's official web portal to all federal, state and local government web resources and services.